Location: La Oliva
(42.2466°N, 2.9955°E)
Time: 11:33:12
(UTC+00:00)

Cosmos 2292 Rocket - Pass Details

Date: 22 April 2021
Orbit: 380 x 1448 km, 83.0° (Epoch: 10 May)

Event Time Altitude Azimuth Distance (km) Brightness Sun altitude
Rises 19:55:44 0° 353° (N) 3,908 8.2 -14.0°
Reaches altitude 10° 19:58:41 10° 355° (N) 2,776 7.4 -14.4°
Maximum altitude 20:04:56 78° 81° (E) 819 4.0 -15.4°
Enters shadow 20:08:31 18° 167° (SSE) 1,666 5.3 -15.9°
